Temp_Advection
nan nan nan nan nan nan nan nan nan nan nan nan nan nan nan nan nan nan nan nan nan nan nan nan nan nan nan nan nan nan nan nan nan nan nan nan nan nan nan nan nan nan nan nan nan nan nan nan nan
nan 0 0 0 -0 -0 -1 -1 -0 0 0 0 -1 -1 -0 -0 -0 -0 -1 0 0 1 0 0 0 0 0 0 0 0 0 0 0 0 -0 -0 0 -0 -0 0 -0 -0 -0 -0 -0 -0 -0 -0 nan
nan 0 0 0 -0 -0 -1 -0 -0 0 -0 0 -0 -0 -1 -0 -1 -0 0 0 1 1 0 0 0 0 0 0 0 0 0 0 0 0 0 -0 0 0 0 -0 -0 -0 -0 -0 0 0 -0 -0 nan
nan -0 0 -0 -1 -1 -1 -0 -0 -0 -0 -0 -0 -0 -0 -0 -0 -1 0 1 0 1 1 0 0 0 0 0 -0 0 0 0 0 0 0 0 0 0 0 -0 -0 -0 -0 -0 -0 -0 -0 -0 nan
nan 0 0 -0 -1 -1 -0 -0 -1 -0 0 1 0 -0 -0 -0 0 -0 -1 1 1 1 1 1 0 0 0 0 0 0 -0 0 0 0 0 0 -0 0 -0 -0 -0 -0 -0 -0 -0 -0 -0 -0 nan
nan 0 0 -0 -1 0 -1 -0 -0 -0 0 0 0 -0 -0 0 0 -0 -0 -0 1 1 1 1 0 0 1 0 0 0 0 0 0 0 -0 0 0 0 -0 -0 -0 -0 -0 -0 -0 -0 -0 -0 nan
nan -0 -0 -1 -1 -0 -0 -0 -0 0 0 0 -0 -0 0 0 0 0 -0 -1 0 0 0 1 0 0 0 0 0 0 0 0 0 0 0 0 0 0 0 -0 -0 -0 -0 -0 -0 -0 -0 -0 nan
nan -0 -0 -1 0 -0 -0 0 0 -0 0 0 -0 -0 -0 0 0 0 -0 -0 -0 -0 -1 0 1 0 0 0 0 0 -0 -0 0 0 0 0 0 0 0 0 -0 -0 -0 -0 -0 -0 -0 -0 nan
nan 0 -0 -0 -0 0 -0 0 -0 0 -0 -0 -0 0 -1 -1 0 -0 -0 -1 -0 0 0 -1 -0 -0 0 -0 0 0 0 -0 -0 0 0 0 0 0 -0 -0 -0 -0 -0 -0 -0 -0 -0 -0 nan
nan -0 -0 0 -0 -0 0 1 -0 0 -1 -0 0 0 0 0 0 0 0 -1 -2 -0 0 0 0 -0 0 0 0 -0 0 0 -0 -0 0 0 -0 -0 -0 -0 -0 -0 -0 -0 -0 -0 -0 -0 nan
nan -0 -0 -0 0 -0 -0 0 0 0 -0 0 0 -0 -1 -1 -0 0 1 1 -1 -1 -1 -0 0 0 0 0 0 0 0 0 0 -0 -0 0 0 0 0 -0 -0 -0 -0 -0 -0 -0 0 0 nan
nan -1 -0 -1 0 1 -1 -0 -0 -0 -0 1 0 -0 -1 -1 -2 -1 -1 0 1 0 -0 -0 0 0 0 0 0 -0 0 0 -0 -0 -0 0 -0 -0 -0 -0 -0 0 0 0 0 -0 0 0 nan
nan 0 -0 0 0 -0 0 0 -0 -1 -1 -1 1 0 -1 -1 -1 -1 -1 -1 -1 -1 -0 -0 0 0 -0 -0 -0 -0 -0 -0 -0 -0 -0 0 -0 -0 -0 0 0 0 0 -0 0 -0 -0 -0 nan
nan 1 -1 0 1 0 -0 0 0 -0 -0 -1 -1 -0 -0 -1 -1 -1 -1 -1 -1 -1 -1 -0 -0 0 -0 -0 -0 -0 -0 0 0 0 0 -0 -0 0 0 0 0 0 0 -0 -0 0 -0 -0 nan
nan -0 0 -1 -1 -0 -1 -0 -0 0 -0 -0 -1 -1 -0 -0 -2 -1 -1 -1 -0 -1 -1 -0 -0 0 0 -0 -0 -0 0 0 0 -0 0 0 0 0 0 0 0 0 0 0 -0 -0 -0 0 nan
nan -0 0 0 -1 -0 -0 0 -1 1 1 0 -0 -0 -0 -0 -1 -1 -1 -1 -0 -1 -1 -0 -0 0 -0 0 0 0 0 0 0 0 -0 -0 -0 -0 -0 0 -0 0 0 0 0 0 -0 -0 nan
nan 0 0 -0 -0 -0 0 -0 0 1 -0 -0 0 0 -0 -0 -0 -0 -0 -0 -0 -0 -0 -1 -0 0 -0 0 0 0 1 0 0 0 -0 0 0 0 -0 0 -0 0 0 0 -0 0 0 -0 nan
nan -0 0 0 -0 0 -0 -0 -0 2 1 1 0 1 0 0 -0 -0 -0 -0 -0 0 0 -0 -0 0 0 0 0 1 0 0 0 0 0 0 -0 0 0 0 0 0 0 -0 0 -0 -0 -0 nan
nan 0 -0 -0 -0 -0 0 -0 -1 0 3 2 2 -1 1 -0 0 0 0 -0 0 0 -0 -0 -0 -0 0 0 1 1 0 0 0 0 0 0 0 0 0 0 0 0 0 0 0 -0 -0 -0 nan
nan 0 -0 -0 -0 -0 -0 -0 -0 -3 -2 -1 -1 -2 0 0 0 0 0 0 1 0 -0 -0 0 0 0 0 0 0 0 -0 -0 0 0 0 0 0 0 0 0 -0 -0 -0 0 -0 -0 -0 nan
nan 0 -0 0 0 -0 -0 -0 0 -1 -2 -2 -2 1 1 0 0 0 1 0 0 1 -0 1 0 1 0 0 -0 -0 -0 -0 0 0 0 0 0 -0 -0 0 0 0 -0 -0 0 0 -0 -0 nan
nan -0 0 -0 -0 0 -0 0 -0 -0 0 -0 0 -0 -1 -0 0 0 1 1 0 0 0 1 0 0 0 0 -0 -0 -0 -0 0 1 0 0 -0 -0 0 0 0 0 0 0 0 0 0 0 nan
nan 0 0 0 0 -0 -0 -0 0 -0 -0 0 -0 -2 -2 0 0 0 0 0 -0 0 1 0 1 0 0 -0 0 0 0 0 1 0 -0 -0 0 0 0 -0 0 0 0 0 0 0 0 0 nan
nan -0 -0 -0 -0 0 -0 -0 0 -0 -0 0 -0 -0 -0 -0 0 0 0 0 0 1 1 0 0 0 -0 0 0 0 1 0 0 -0 -0 0 0 1 0 0 0 0 -0 -0 0 -0 -0 0 nan
nan -0 -0 -0 -1 -0 -0 -0 -0 -1 -0 -0 -1 0 1 0 0 0 1 1 1 1 0 0 -0 -0 0 1 1 1 1 0 0 0 0 0 1 0 0 0 0 0 0 -0 -0 -0 -0 -0 nan
nan -0 -0 0 -0 -0 -0 -0 -0 -0 1 0 1 2 1 0 0 0 0 0 0 1 1 0 0 1 1 1 1 1 0 0 0 0 1 1 0 0 0 0 0 0 0 0 -0 -0 -0 -0 nan
nan 0 -0 -1 0 0 -1 -1 -0 -1 0 0 2 1 0 0 0 0 -0 -0 -0 0 0 1 1 1 1 1 1 1 0 0 0 1 1 0 0 0 0 -0 -0 0 0 0 -0 -0 0 0 nan
nan 0 -0 0 0 -0 -0 -0 0 0 -0 0 0 -1 -0 -0 -0 0 -0 0 0 0 1 1 1 1 1 1 1 1 0 0 1 1 0 0 0 0 -0 0 -0 -0 -0 -0 0 0 0 0 nan
nan -0 0 -0 -0 0 0 -1 -0 -0 -0 -1 -2 -1 -0 -0 -0 -0 -0 0 1 1 1 0 0 1 1 1 0 1 0 1 1 0 0 0 0 0 0 0 0 -0 -0 -0 0 0 0 0 nan
nan nan nan nan nan nan nan nan nan nan nan nan nan nan nan nan nan nan nan nan nan nan nan nan nan nan nan nan nan nan nan nan nan nan nan nan nan nan nan nan nan nan nan nan nan nan nan nan nan
Wind_Speed
8 6 4 5 2 2 5 10 3 2 4 12 21 20 14 11 4 5 24 16 32 35 28 28 27 26 24 23 20 18 17 16 15 14 14 15 17 17 16 16 16 17 19 22 23 25 25 26 25
5 6 4 5 3 1 6 9 8 8 13 17 16 17 10 5 10 16 25 24 24 32 35 29 27 26 24 22 20 18 16 15 14 15 14 15 17 16 15 16 17 19 21 22 24 24 25 25 22
6 7 4 4 4 6 6 0 8 10 17 12 5 13 8 5 19 14 20 25 30 36 34 30 27 25 23 22 20 18 15 15 14 15 15 16 16 15 16 18 18 20 21 22 22 23 24 24 25
7 4 7 0 10 16 11 3 10 10 19 15 10 6 9 8 10 13 28 27 34 35 33 30 25 23 24 21 19 17 14 14 14 15 15 15 14 15 17 19 19 19 19 19 18 18 20 21 23
5 6 2 3 11 14 5 10 12 6 8 8 13 7 8 10 7 15 22 38 40 36 34 30 24 22 23 20 15 14 14 14 13 14 15 14 15 16 18 18 18 17 16 15 15 15 17 18 20
4 3 2 6 10 1 13 19 9 6 8 8 9 10 10 9 12 14 17 24 38 38 33 30 24 17 22 18 16 14 13 14 14 14 14 14 15 16 16 16 15 14 13 12 12 12 15 16 18
9 2 7 9 14 3 6 11 10 5 3 4 9 5 11 10 7 7 14 28 28 32 28 24 26 25 17 18 17 14 12 13 13 15 15 15 15 14 13 12 11 10 9 9 9 11 12 12 13
19 3 7 10 11 2 2 6 9 4 3 6 5 4 6 15 12 19 22 22 27 24 21 27 28 15 17 17 15 14 13 13 14 16 17 16 14 12 11 7 7 6 7 8 9 12 10 10 11
19 1 8 6 4 3 2 2 3 8 11 6 6 7 17 15 12 23 27 23 17 22 18 21 23 18 17 17 16 14 14 15 18 17 15 14 10 10 10 11 9 9 10 8 10 12 9 5 10
5 2 6 3 5 4 7 18 4 1 16 10 14 15 13 22 28 26 37 29 31 31 30 23 20 18 16 15 15 17 18 19 20 16 13 9 8 7 10 9 8 11 6 6 8 6 8 8 7
13 8 5 4 4 7 1 2 5 3 7 11 16 9 19 23 39 34 27 35 29 25 28 24 23 20 16 17 22 17 16 16 18 13 13 10 9 9 5 3 6 4 5 1 2 2 4 3 5
4 20 10 15 17 8 7 8 6 6 9 29 28 17 18 21 25 37 33 35 31 28 27 27 24 19 20 22 21 20 19 17 17 14 14 11 11 7 7 5 5 3 3 3 4 6 9 10 11
7 4 16 15 23 4 4 3 6 18 16 24 19 20 17 22 25 28 28 29 30 30 30 28 24 19 19 19 24 17 16 14 12 10 9 8 6 2 6 11 9 11 7 9 11 12 12 10 9
5 9 24 18 24 16 9 6 4 6 9 19 23 23 23 22 27 31 29 28 23 26 34 31 27 24 24 26 20 18 16 12 8 6 6 7 4 8 8 10 10 7 6 9 10 10 10 14 17
8 5 2 14 26 9 15 4 6 8 22 20 18 22 24 22 31 32 28 25 19 21 34 28 27 26 23 22 22 19 19 11 3 6 4 7 3 0 2 4 7 6 5 6 10 14 16 17 15
4 3 1 3 20 13 7 5 12 20 23 21 25 20 20 24 25 26 22 21 19 18 30 26 25 27 22 19 20 24 22 3 7 6 6 3 3 5 4 2 3 5 8 12 13 15 13 14 20
2 3 3 3 14 6 6 5 17 22 17 10 19 19 24 24 23 20 18 21 18 17 20 22 23 23 20 18 21 25 14 6 4 1 5 6 6 4 0 2 7 9 10 11 13 15 18 23 25
3 1 7 9 7 8 2 5 16 29 28 20 15 12 20 24 24 20 20 23 24 22 24 22 24 23 19 19 24 23 11 4 4 9 7 5 3 3 4 6 7 9 12 15 16 19 22 22 21
7 6 6 7 9 7 8 9 16 24 29 32 27 14 24 26 24 22 19 19 24 25 25 22 21 21 20 20 25 19 12 12 11 7 5 5 4 5 8 8 12 15 17 19 21 22 21 21 21
7 11 11 6 6 4 5 7 10 25 21 35 28 25 23 21 22 24 22 18 27 29 21 22 20 15 18 16 19 13 16 15 9 8 9 9 7 6 9 12 15 16 18 20 19 19 21 17 16
1 2 5 5 3 1 5 2 4 7 16 28 36 25 32 31 32 31 29 22 24 27 24 18 20 17 19 20 18 20 18 16 14 11 10 8 7 8 13 15 17 18 21 21 22 21 18 17 16
5 2 3 2 2 2 5 2 4 4 4 8 28 34 35 37 34 31 27 27 20 22 21 15 15 22 24 22 22 25 24 22 18 14 12 10 10 13 17 20 19 20 20 20 21 20 19 20 22
5 5 1 3 1 4 4 2 5 3 4 3 6 24 32 44 37 32 27 25 23 19 16 9 25 21 22 29 25 23 22 21 22 22 16 9 11 15 19 20 19 18 19 18 15 15 16 18 16
6 3 3 4 3 1 4 5 4 7 20 5 7 10 13 40 34 29 25 23 23 20 18 21 24 29 30 25 26 25 27 28 24 19 13 11 15 18 16 15 16 17 16 15 14 15 17 19 20
1 4 3 4 5 3 15 0 9 16 12 10 15 23 13 29 31 28 29 26 24 24 24 28 31 28 28 26 27 26 24 21 18 14 14 17 16 13 14 15 16 15 14 15 15 16 20 21 22
3 6 4 5 1 5 7 5 5 15 25 26 29 25 17 28 29 28 27 28 29 28 29 27 27 27 28 28 27 24 21 18 16 15 15 14 11 11 13 14 14 15 12 13 17 19 19 14 15
4 2 6 6 3 2 5 6 5 9 5 11 17 22 24 27 26 26 28 28 27 28 27 24 25 26 27 26 25 23 21 17 14 13 11 10 10 11 11 13 14 14 14 14 14 18 16 15 14
3 3 4 3 5 4 4 3 3 5 7 10 11 18 29 27 27 30 31 29 28 28 25 25 25 26 24 23 18 18 14 12 12 10 9 10 10 11 13 14 15 16 14 10 12 15 14 15 17
1 2 3 3 5 4 1 4 3 5 5 9 17 31 35 34 34 34 32 30 30 28 24 26 25 25 25 23 18 16 12 12 10 9 10 11 13 13 16 15 16 15 11 12 13 16 21 19 16
4 6 5 5 4 2 4 5 3 7 5 9 12 30 37 38 38 36 35 34 33 31 28 27 28 27 27 25 19 16 12 12 11 10 12 13 15 18 20 18 18 11 15 18 20 22 16 12 13
Wind_Direction
276 238 242 277 32 104 250 247 297 330 32 74 61 87 94 59 53 147 151 181 150 152 153 150 150 147 142 136 133 128 123 117 109 104 100 100 99 98 91 85 82 82 82 80 78 75 71 67 70
245 184 266 268 140 270 272 234 95 102 111 76 57 85 55 73 92 129 159 171 174 161 152 154 151 146 140 137 132 127 122 118 114 110 108 105 103 98 92 88 88 87 86 84 81 75 69 65 66
211 191 247 160 216 227 239 273 132 92 62 81 76 52 54 88 124 124 162 163 156 152 151 150 150 144 143 136 130 125 125 117 114 111 111 109 106 100 98 97 94 92 88 84 78 71 64 57 54
170 213 252 144 259 257 246 245 116 96 65 73 79 58 83 50 133 147 153 153 155 153 151 148 148 149 140 130 128 123 118 116 114 113 113 112 108 105 105 100 97 94 91 87 79 65 59 53 51
196 257 228 255 253 264 345 94 104 84 124 94 97 94 82 61 124 151 157 148 160 150 147 144 147 151 134 121 123 129 123 115 113 113 118 117 114 111 106 105 104 98 91 86 75 61 53 46 47
257 225 6 246 275 9 60 88 46 68 101 114 110 102 81 125 144 152 167 159 153 145 145 143 144 146 113 137 136 129 125 121 119 121 123 117 112 112 111 109 104 99 95 85 71 56 49 47 43
234 17 269 290 288 17 17 21 69 51 80 31 110 91 119 138 144 172 147 125 117 140 130 123 125 111 146 132 133 127 120 120 122 120 114 113 111 113 113 112 108 98 84 74 58 49 44 45 37
243 124 293 275 298 116 284 120 35 49 353 95 111 136 135 121 130 132 117 123 128 119 112 105 112 141 134 133 131 123 116 115 115 117 115 111 114 111 108 106 99 86 64 50 48 41 52 36 35
260 328 270 304 355 195 222 82 256 188 159 73 40 86 158 140 168 132 119 120 123 131 121 138 141 146 144 137 121 117 116 121 119 116 118 116 114 104 80 68 68 52 47 50 47 42 19 19 356
200 197 244 257 157 195 133 136 208 311 113 68 86 104 132 146 144 134 126 114 133 132 154 145 146 153 136 130 131 127 125 123 126 118 118 104 96 69 74 61 59 42 58 71 50 39 37 7 14
250 236 151 262 10 120 63 80 111 194 81 131 99 117 139 142 137 130 136 129 134 145 149 156 152 139 146 142 138 134 131 127 135 133 127 123 145 134 136 118 109 83 53 342 71 6 316 330 340
224 243 168 105 59 304 172 180 126 56 120 144 127 147 154 148 153 154 142 144 144 148 154 152 143 128 130 130 131 132 133 137 148 154 158 167 160 172 171 162 179 301 253 240 267 288 282 287 301
203 233 124 150 137 121 33 219 108 84 146 155 144 143 144 144 146 140 136 142 149 155 152 148 150 145 150 155 153 147 139 154 157 167 175 173 169 200 234 227 241 311 259 268 278 306 310 308 316
227 246 164 157 132 147 175 89 79 180 148 149 146 150 141 143 146 146 145 147 150 158 152 153 154 163 165 164 163 155 155 169 167 212 218 183 203 287 240 241 275 294 294 283 299 320 308 308 302
73 72 222 148 161 184 134 49 262 167 143 151 157 150 151 134 144 149 148 145 143 148 157 162 160 175 172 176 173 173 173 185 293 289 259 349 337 257 187 243 272 298 306 304 296 289 299 300 288
39 32 94 66 184 146 141 218 219 183 162 171 158 160 161 155 150 146 149 155 157 153 162 165 170 177 180 183 177 180 186 257 313 275 300 3 89 130 180 239 337 311 291 288 292 301 301 298 303
265 228 117 243 234 141 172 176 181 173 169 195 170 171 158 147 147 150 155 173 178 179 166 168 172 184 184 188 188 188 202 249 242 275 176 163 145 136 117 301 285 286 281 286 293 297 300 306 315
267 243 211 202 247 178 140 157 124 156 139 181 240 182 165 159 164 166 168 178 183 182 171 174 179 190 190 190 189 191 221 222 210 162 183 150 128 129 235 263 290 304 303 303 296 298 306 314 313
224 239 271 259 209 167 164 160 141 148 150 177 213 247 159 158 161 166 167 173 182 188 180 185 189 195 196 189 195 200 201 188 178 179 188 205 225 199 207 245 274 285 295 301 304 307 312 312 314
283 338 266 249 151 147 121 202 183 160 175 181 182 164 190 173 177 172 183 159 189 192 197 193 197 201 201 191 182 193 173 178 197 199 213 198 230 272 300 297 299 303 305 311 313 313 313 314 305
155 265 293 137 119 343 15 75 178 204 180 162 177 197 187 194 179 182 191 178 186 190 200 197 198 198 182 160 166 169 173 188 197 207 218 203 230 267 287 296 301 305 311 312 312 311 311 307 302
246 126 315 128 25 170 78 291 14 333 171 194 174 184 193 188 184 184 187 189 190 187 210 200 199 171 162 167 183 185 188 188 198 210 186 205 259 294 307 298 292 298 299 298 299 300 300 292 293
253 180 225 294 311 78 327 128 239 330 295 257 277 188 184 186 185 181 183 187 197 210 229 195 159 169 172 176 189 193 195 204 192 183 190 223 279 283 275 274 292 297 303 304 305 299 295 291 290
282 328 339 343 101 109 220 145 225 191 214 188 259 201 184 179 181 178 187 193 193 212 192 179 173 171 176 185 194 197 198 195 191 198 224 262 276 271 281 291 301 308 311 312 307 298 295 293 293
64 19 3 0 12 236 10 62 239 219 219 202 199 201 195 171 169 173 173 179 184 188 189 182 181 184 192 192 193 201 202 202 212 225 256 272 276 279 285 296 305 314 313 308 305 301 298 290 299
233 150 165 167 174 301 350 233 235 217 206 205 213 215 193 161 167 172 174 172 177 183 189 191 198 205 207 206 205 205 208 213 224 252 263 270 268 274 286 298 310 309 300 298 301 299 314 310 307
293 337 175 101 7 59 223 254 354 106 137 188 204 199 178 163 169 177 179 183 191 195 197 200 208 212 216 217 217 215 216 227 247 253 261 261 274 285 296 302 306 308 310 291 308 302 310 302 295
191 253 22 24 143 241 285 324 197 123 167 207 182 199 173 171 178 185 188 197 206 210 212 202 215 220 228 228 219 215 228 240 249 254 258 269 284 298 309 311 311 311 313 319 300 305 305 305 297
223 257 220 142 132 169 175 280 175 105 146 146 187 180 180 181 184 189 194 202 206 209 211 204 213 220 225 232 223 224 233 248 244 252 268 287 299 305 314 318 312 314 317 302 294 287 291 299 298
183 187 182 124 258 185 146 270 196 142 167 162 172 186 189 189 190 194 198 200 202 203 203 204 207 218 224 230 227 235 257 250 253 262 280 292 298 303 309 310 312 302 293 292 312 301 310 304 301
Height
1519 1521 1522 1522 1532 1526 1528 1514 1502 1496 1495 1495 1493 1495 1504 1507 1510 1522 1520 1523 1526 1531 1541 1543 1547 1551 1554 1554 1557 1558 1560 1562 1563 1566 1569 1569 1569 1572 1573 1573 1576 1577 1578 1578 1578 1578 1577 1577 1577
1518 1520 1521 1521 1531 1539 1530 1501 1505 1494 1493 1495 1498 1502 1503 1512 1512 1515 1519 1526 1527 1530 1534 1545 1550 1552 1553 1555 1557 1560 1561 1563 1565 1566 1569 1572 1570 1574 1574 1575 1577 1578 1580 1580 1580 1580 1580 1580 1580
1517 1519 1522 1521 1526 1532 1523 1498 1496 1496 1497 1495 1504 1506 1511 1519 1518 1520 1521 1525 1528 1533 1538 1545 1550 1551 1554 1555 1557 1559 1563 1564 1566 1567 1570 1572 1573 1574 1574 1575 1579 1579 1581 1581 1582 1582 1582 1583 1583
1517 1518 1519 1521 1522 1504 1504 1498 1493 1498 1499 1502 1506 1513 1519 1521 1521 1522 1523 1526 1529 1534 1540 1543 1550 1553 1553 1554 1557 1560 1562 1566 1568 1568 1572 1573 1575 1575 1576 1576 1581 1582 1582 1583 1584 1585 1584 1585 1584
1516 1515 1521 1519 1511 1495 1494 1494 1493 1502 1505 1506 1507 1516 1519 1523 1525 1525 1528 1526 1528 1533 1539 1543 1550 1553 1552 1553 1557 1561 1564 1567 1569 1571 1573 1574 1576 1577 1577 1579 1582 1582 1585 1585 1586 1586 1586 1587 1585
1515 1510 1524 1523 1508 1502 1503 1502 1505 1500 1505 1507 1507 1509 1523 1527 1526 1527 1527 1530 1518 1527 1537 1542 1550 1546 1550 1556 1561 1564 1566 1566 1568 1571 1574 1576 1577 1579 1580 1581 1584 1584 1584 1587 1587 1588 1586 1587 1586
1514 1518 1521 1516 1508 1506 1512 1509 1504 1511 1511 1508 1510 1513 1523 1527 1530 1530 1529 1519 1517 1532 1536 1544 1549 1556 1556 1557 1562 1565 1567 1568 1569 1572 1575 1576 1578 1580 1582 1583 1583 1584 1586 1586 1588 1588 1587 1586 1587
1511 1515 1518 1512 1510 1521 1511 1508 1510 1509 1515 1512 1514 1516 1524 1526 1527 1532 1531 1532 1535 1538 1541 1543 1550 1556 1557 1561 1563 1563 1566 1569 1572 1574 1574 1577 1579 1580 1582 1583 1583 1585 1586 1588 1588 1588 1588 1586 1586
1511 1521 1521 1514 1512 1516 1511 1510 1510 1510 1512 1513 1517 1517 1520 1526 1528 1535 1535 1538 1539 1545 1548 1550 1548 1556 1560 1562 1562 1564 1567 1571 1573 1574 1575 1578 1579 1581 1583 1584 1585 1587 1587 1588 1589 1588 1588 1586 1585
1508 1517 1514 1507 1507 1510 1508 1502 1508 1516 1516 1519 1521 1523 1524 1524 1526 1534 1535 1538 1542 1543 1545 1549 1553 1558 1559 1562 1563 1565 1568 1571 1574 1574 1576 1577 1579 1580 1582 1584 1586 1587 1586 1587 1586 1586 1585 1586 1583
1503 1509 1506 1506 1511 1513 1512 1505 1501 1508 1515 1515 1517 1523 1527 1529 1532 1533 1538 1539 1539 1544 1547 1553 1558 1559 1561 1562 1563 1565 1569 1572 1574 1573 1575 1578 1579 1581 1581 1583 1585 1585 1586 1585 1585 1584 1585 1584 1583
1504 1495 1502 1507 1507 1511 1509 1506 1503 1508 1511 1515 1516 1521 1526 1529 1529 1533 1536 1539 1541 1544 1549 1554 1557 1558 1562 1563 1564 1566 1568 1571 1572 1573 1575 1576 1578 1581 1582 1583 1584 1585 1584 1583 1584 1583 1583 1582 1580
1496 1492 1502 1499 1493 1507 1506 1504 1506 1509 1514 1520 1518 1521 1527 1527 1530 1532 1535 1538 1541 1545 1549 1553 1557 1559 1562 1563 1565 1567 1569 1568 1570 1574 1574 1576 1579 1580 1581 1581 1582 1582 1582 1581 1581 1580 1579 1578 1578
1490 1491 1499 1502 1504 1504 1501 1504 1503 1507 1512 1517 1520 1523 1525 1526 1529 1532 1535 1539 1541 1546 1551 1554 1557 1560 1562 1564 1566 1567 1567 1569 1571 1574 1573 1575 1577 1578 1577 1578 1579 1580 1579 1578 1579 1578 1576 1575 1574
1488 1495 1494 1502 1499 1500 1500 1510 1508 1508 1511 1516 1521 1524 1524 1527 1529 1529 1530 1534 1539 1545 1549 1553 1557 1559 1562 1563 1565 1567 1567 1568 1570 1570 1571 1572 1573 1573 1574 1575 1577 1577 1576 1576 1575 1574 1573 1571 1571
1491 1495 1505 1493 1496 1497 1499 1513 1507 1510 1513 1516 1519 1520 1524 1529 1532 1532 1534 1535 1537 1542 1548 1551 1556 1557 1560 1562 1564 1566 1567 1568 1568 1569 1570 1570 1571 1573 1573 1574 1574 1576 1575 1573 1572 1570 1569 1568 1566
1497 1511 1503 1500 1492 1496 1496 1509 1505 1513 1517 1520 1520 1521 1523 1527 1530 1532 1534 1536 1537 1539 1543 1549 1553 1555 1558 1560 1563 1566 1566 1569 1569 1568 1569 1571 1571 1571 1571 1572 1574 1574 1572 1570 1568 1567 1565 1563 1560
1508 1505 1502 1502 1494 1492 1500 1504 1508 1512 1511 1516 1522 1525 1526 1527 1528 1532 1535 1535 1536 1538 1543 1546 1549 1552 1555 1558 1562 1565 1565 1568 1568 1568 1567 1568 1568 1570 1571 1571 1570 1569 1568 1566 1565 1563 1561 1559 1556
1497 1501 1502 1493 1488 1492 1499 1503 1505 1508 1510 1515 1519 1526 1524 1526 1529 1531 1534 1536 1537 1538 1538 1540 1543 1548 1552 1555 1558 1562 1564 1566 1565 1565 1565 1566 1567 1569 1570 1570 1569 1567 1565 1563 1561 1558 1556 1555 1552
1496 1500 1499 1488 1484 1490 1502 1503 1497 1507 1508 1509 1518 1516 1522 1523 1525 1527 1530 1532 1533 1534 1537 1539 1542 1545 1550 1552 1556 1559 1561 1562 1563 1564 1564 1566 1567 1567 1566 1565 1564 1563 1561 1559 1557 1555 1552 1551 1549
1496 1501 1494 1494 1488 1489 1493 1503 1502 1498 1500 1509 1507 1508 1513 1519 1521 1524 1525 1530 1531 1532 1534 1537 1540 1543 1547 1550 1554 1557 1559 1561 1561 1561 1562 1563 1563 1562 1562 1561 1560 1558 1556 1554 1553 1551 1549 1547 1546
1501 1489 1493 1493 1501 1517 1499 1530 1513 1502 1501 1500 1505 1507 1511 1514 1518 1520 1522 1526 1528 1531 1532 1536 1539 1541 1544 1547 1550 1552 1554 1555 1557 1558 1559 1558 1560 1560 1558 1556 1555 1554 1553 1551 1549 1548 1547 1544 1542
1493 1486 1489 1492 1500 1509 1508 1516 1512 1507 1502 1499 1502 1501 1504 1507 1509 1513 1519 1524 1529 1531 1533 1534 1538 1540 1542 1545 1547 1549 1551 1551 1552 1553 1556 1558 1558 1557 1555 1553 1552 1551 1549 1547 1545 1545 1543 1541 1540
1485 1489 1492 1497 1507 1535 1509 1514 1518 1507 1492 1494 1494 1497 1499 1503 1507 1512 1517 1522 1525 1530 1533 1535 1537 1538 1540 1542 1542 1544 1545 1546 1549 1553 1555 1555 1553 1551 1550 1549 1548 1547 1545 1543 1543 1542 1541 1540 1538
1490 1500 1526 1532 1542 1544 1511 1514 1505 1489 1487 1488 1489 1488 1498 1500 1505 1508 1513 1518 1521 1527 1531 1533 1534 1535 1537 1539 1540 1541 1543 1547 1549 1550 1551 1550 1548 1547 1547 1546 1545 1543 1542 1541 1541 1539 1537 1535 1534
1495 1501 1530 1539 1552 1532 1517 1517 1495 1478 1479 1487 1486 1490 1499 1500 1504 1507 1511 1515 1521 1526 1530 1531 1532 1533 1535 1537 1539 1541 1543 1545 1546 1547 1546 1545 1545 1545 1543 1543 1541 1540 1539 1538 1537 1535 1533 1532 1530
1493 1503 1493 1524 1531 1541 1519 1494 1479 1477 1482 1485 1488 1493 1498 1499 1503 1507 1512 1515 1519 1524 1528 1530 1531 1532 1534 1535 1538 1541 1541 1542 1543 1543 1542 1543 1543 1542 1541 1540 1538 1537 1536 1535 1533 1531 1529 1528 1526
1487 1488 1508 1515 1534 1533 1513 1501 1503 1488 1487 1484 1490 1493 1495 1497 1502 1506 1510 1513 1516 1521 1526 1529 1530 1532 1533 1534 1538 1539 1540 1540 1540 1539 1540 1541 1539 1540 1539 1537 1536 1535 1533 1530 1529 1527 1525 1524 1523
1493 1495 1491 1497 1517 1533 1543 1520 1484 1485 1483 1483 1486 1487 1489 1493 1498 1502 1506 1509 1512 1517 1521 1525 1527 1529 1530 1532 1535 1537 1538 1538 1537 1537 1537 1537 1537 1537 1537 1535 1534 1533 1532 1530 1527 1525 1521 1519 1517
1479 1489 1494 1526 1514 1525 1533 1521 1482 1480 1480 1480 1482 1484 1486 1489 1492 1496 1500 1504 1508 1511 1515 1519 1521 1524 1526 1529 1532 1534 1535 1535 1535 1536 1536 1535 1536 1535 1533 1531 1530 1528 1527 1527 1525 1523 1520 1517 1513